[[{"header":{"parameterUnit":"m.s-1","parameterCategory":1,"la1":30.2991,"la2":30.254,"lo1":-89.0895,"lo2":-89.0444,"dy":0.0017,"dx":0.0017,"nx":28,"ny":28,"refTime":"2024-08-06T09:00:00:Z","depth":0,"parameterNumber":2,"parameterNumberName":"U-component_of_WINDS"},"data":[0,0,0,0,0,0,0,0,0,0,0,0,0,0,0,0,0,0,0,0,0,0,0,0,0,0,0,0,0,0,0,0,0,0,0,0,0,0,0,0,0,0,0,0,0,0,0,0,0,0,0,0,0,0,0,0,0,0,2.6938,2.6939,0,2.7053,2.7054,2.7055,2.7033,2.7031,2.7029,2.7027,2.7145,2.715,2.7155,0,0,0,0,0,0,0,0,0,0,0,0,0,2.67,2.6704,2.6937,2.6939,2.694,2.7052,2.7054,2.7056,2.7033,2.7031,2.7028,2.7026,2.7144,2.715,2.7156,0,0,0,0,0,0,0,0,0,0,0,0,0,2.6808,2.6706,2.6937,2.6943,2.6944,2.7052,2.7054,2.7056,2.7034,2.703,2.7027,2.7024,2.7142,2.7149,2.7157,2.7267,0,0,2.718,2.7183,0,0,0,0,0,0,0,0,2.6802,2.6817,2.694,2.6942,2.6944,2.7025,2.7014,2.7127,2.7034,2.7,2.7026,2.7023,2.7108,2.7118,2.7147,2.7272,2.7277,2.7181,2.7185,2.7189,2.7191,0,0,0,0,0,0,0,2.6794,2.6812,2.6983,2.6942,2.6945,2.694,2.6952,2.7035,2.707,2.7002,2.7001,2.7015,2.7108,2.7139,2.7149,2.7279,2.7181,2.7187,2.7192,2.7195,2.7504,2.7507,0,0,0,0,0,0,2.6785,2.6806,2.6979,2.6986,2.6864,2.6947,2.696,2.7002,2.7069,2.7076,2.7018,2.7014,2.7128,2.714,2.7153,2.7289,2.7189,2.7196,2.72,2.75,2.7504,2.7508,0,0,0,0,0,0,2.678,2.6801,2.6975,2.6896,2.6918,2.6954,2.7002,2.7006,2.7037,2.708,2.7087,2.7043,2.7126,2.7143,2.7239,2.7292,2.7199,2.7206,2.7496,2.7501,2.7506,2.7559,0,0,0,0,0,0,2.6773,2.6799,2.6841,2.6897,2.6922,2.7058,2.7005,2.7011,2.705,2.7046,2.7106,2.7112,2.7125,2.7228,2.7247,2.7301,2.7212,2.7491,2.7498,2.7505,2.7552,2.7565,2.7576,0,0,0,0,0,2.6765,2.685,2.6843,2.6864,2.6975,2.7061,2.7076,2.7088,2.7055,2.7097,2.7126,2.7111,2.7283,2.7238,2.7259,2.7317,2.7488,2.7496,2.7504,2.7547,2.7563,2.7576,0,0,0,0,0,0,2.6799,2.6858,2.685,2.6956,2.7004,2.7057,2.7111,2.7103,2.7162,2.7155,2.7168,2.7182,2.7281,2.7308,2.7257,2.7428,2.7381,2.7394,2.7406,2.7422,2.7433,2.7425,2.7219,0,0,0,0,0,2.6819,2.6884,2.6932,2.7021,2.7045,2.7074,2.7112,2.7118,2.7168,2.7188,2.7223,2.7273,2.7338,2.7381,2.7444,2.7556,2.757,2.7606,2.7618,2.7627,2.7639,2.7702,2.772,2.7535,2.7535,2.7535,0,0,2.6861,2.6901,2.6941,2.7029,2.7067,2.7135,2.7091,2.7165,2.7216,2.7199,2.7293,2.7321,2.7377,2.7483,2.7531,2.7508,2.7693,2.7638,2.7645,2.7651,2.7712,2.773,2.7745,2.754,2.7539,2.7538,0,0,2.6973,2.7009,2.7088,2.7127,2.7184,2.7203,2.7222,2.7278,2.7295,2.739,2.7379,2.744,2.7552,2.7594,2.7629,2.7759,2.7748,2.7778,2.7841,2.7903,2.7918,2.7931,2.7979,2.7996,2.7789,2.7789,2.7789,0,2.7018,2.7119,2.713,2.7205,2.7245,2.7233,2.7314,2.7351,2.7427,2.7455,2.7429,2.7571,2.7607,2.7724,2.7755,2.7784,2.7808,2.7772,2.7914,2.7928,2.794,2.7986,2.8004,2.7793,2.7792,2.7792,2.7792,0,2.7173,2.7244,2.7301,2.7374,2.742,2.7498,2.7521,2.7567,2.7568,2.7591,2.7688,2.7732,2.7804,2.7832,2.7834,2.7949,2.7934,2.7911,2.7865,2.7961,2.8005,2.8022,2.7798,2.7797,2.7796,2.7795,0,0,2.7309,2.7388,2.741,2.7444,2.7507,2.7562,2.764,2.7711,2.7751,2.7803,2.787,2.7966,2.7946,2.7987,2.7993,2.8047,2.815,2.8018,2.802,2.8043,2.8282,2.83,2.832,2.8142,2.8146,2.8148,2.8278,0,2.7428,2.7565,2.7578,2.7702,2.7768,2.7759,2.7827,2.7874,2.7897,2.7957,2.7983,2.8051,2.8018,2.8043,2.8096,2.8126,2.8198,2.8116,2.8206,2.8209,2.8194,2.8343,2.8362,2.8482,2.8295,2.8298,2.83,0,2.7585,2.7643,2.7774,2.783,2.7858,2.7919,2.7986,2.8043,2.8097,2.811,2.8156,2.8156,2.8238,2.8187,2.8301,2.8245,2.8283,2.8303,2.8308,2.8318,2.8261,2.8359,2.852,2.8539,2.8326,2.8324,2.8322,0,2.7674,2.7785,2.7878,2.7907,2.7974,2.8017,2.8047,2.8098,2.814,2.8199,2.8227,2.8294,2.8332,2.8384,2.8403,2.8364,2.8517,2.8467,2.8532,2.8531,2.8565,2.8563,2.8737,2.8586,2.8586,2.8586,2.8585,0,2.7807,2.7888,2.7919,2.7976,2.8067,2.8081,2.8171,2.8198,2.8244,2.8307,2.8302,2.8362,2.8382,2.8446,2.8461,2.8555,2.8571,2.8585,2.8588,2.8587,2.8585,2.8612,2.8605,2.8591,2.859,2.8589,2.8588,0,2.7922,2.7946,2.8047,2.8103,2.8119,2.8183,2.8231,2.8287,2.8309,2.839,2.841,2.8445,2.852,2.8543,2.8633,2.8644,2.8754,2.8748,2.8736,2.8737,2.88,2.8795,2.8999,2.9028,2.8857,2.8858,2.886,0,2.8006,2.8068,2.8131,2.8173,2.8205,2.8272,2.8316,2.8332,2.8378,2.8445,2.8493,2.8567,2.8628,2.8748,2.8783,2.8852,2.885,2.8917,2.8861,2.8858,2.8854,2.8851,2.8858,2.8928,2.893,2.8931,2.8932,0,2.8153,2.8163,2.8225,2.8293,2.8345,2.8399,2.8451,2.8486,2.851,2.8562,2.8639,2.8686,2.8778,2.8853,2.8924,2.8956,2.895,2.895,2.8969,2.8968,2.8959,2.8967,2.8767,2.8945,2.8944,2.8943,2.8942,2.8942,2.8257,2.8313,2.8366,2.8436,2.8477,2.8527,2.8583,2.8612,2.8676,2.8753,2.8759,2.8842,2.8896,2.8991,2.9026,2.9093,2.9074,2.9101,2.9108,2.9115,2.9121,2.8947,2.9106,2.9105,2.9105,2.9105,2.9104,0,2.8406,2.844,2.8505,2.8578,2.8634,2.8622,2.868,2.8728,2.8801,2.8851,2.8911,2.9,2.9073,2.9113,2.9186,2.9232,2.9231,2.9251,2.9248,2.9256,2.9133,2.911,2.925,2.925,2.925,2.925,2.925,2.925,2.849,2.8584,2.86,2.8715,2.8748,2.883,2.8864,2.891,2.8951,2.905,2.9111,2.9136,2.9184,2.926,2.9327,2.9337,2.9365,2.9387,2.9396,2.928,2.9265,2.925,2.9229,2.9393,2.9393,2.9514,2.9515,2.9516]},{"header":{"parameterUnit":"m.s-1","parameterCategory":1,"la1":30.2991,"la2":30.254,"lo1":-89.0895,"lo2":-89.0444,"dy":0.0017,"dx":0.0017,"nx":28,"ny":28,"refTime":"2024-08-06T09:00:00:Z","depth":0,"parameterNumber":3,"parameterNumberName":"V-component_of_WINDS"},"data":[0,0,0,0,0,0,0,0,0,0,0,0,0,0,0,0,0,0,0,0,0,0,0,0,0,0,0,0,0,0,0,0,0,0,0,0,0,0,0,0,0,0,0,0,0,0,0,0,0,0,0,0,0,0,0,0,0,0,-1.4653,-1.4654,0,-1.4698,-1.4699,-1.4699,-1.4712,-1.4712,-1.4711,-1.4711,-1.4758,-1.4759,-1.4761,0,0,0,0,0,0,0,0,0,0,0,0,0,-1.4579,-1.458,-1.4653,-1.4654,-1.4654,-1.4698,-1.4699,-1.47,-1.4712,-1.4712,-1.4711,-1.4711,-1.4757,-1.4759,-1.4761,0,0,0,0,0,0,0,0,0,0,0,0,0,-1.4616,-1.4581,-1.4653,-1.4666,-1.4667,-1.4698,-1.4699,-1.47,-1.4712,-1.4712,-1.4711,-1.4711,-1.4757,-1.4759,-1.4761,-1.4783,0,0,-1.4768,-1.4769,0,0,0,0,0,0,0,0,-1.4614,-1.4619,-1.4663,-1.4665,-1.4667,-1.4699,-1.469,-1.4728,-1.4712,-1.4695,-1.4711,-1.4711,-1.4739,-1.4742,-1.4752,-1.4785,-1.4787,-1.4768,-1.4769,-1.477,-1.4771,0,0,0,0,0,0,0,-1.4612,-1.4617,-1.4671,-1.4664,-1.4666,-1.467,-1.4675,-1.4697,-1.4718,-1.4696,-1.4697,-1.4703,-1.4739,-1.4749,-1.4753,-1.4788,-1.4768,-1.477,-1.4771,-1.4772,-1.4842,-1.4842,0,0,0,0,0,0,-1.4607,-1.4615,-1.467,-1.4673,-1.4639,-1.4671,-1.4677,-1.4689,-1.4718,-1.4722,-1.4703,-1.4703,-1.4746,-1.475,-1.4754,-1.4782,-1.477,-1.4772,-1.4774,-1.4841,-1.4842,-1.4842,0,0,0,0,0,0,-1.4605,-1.4612,-1.4668,-1.4644,-1.4652,-1.4673,-1.4687,-1.469,-1.47,-1.4723,-1.4727,-1.4709,-1.4746,-1.4751,-1.4776,-1.4784,-1.4773,-1.4775,-1.4841,-1.4841,-1.4842,-1.4837,0,0,0,0,0,0,-1.4603,-1.4611,-1.4619,-1.4644,-1.4653,-1.4688,-1.4687,-1.4691,-1.4704,-1.4705,-1.473,-1.4734,-1.4746,-1.4772,-1.4778,-1.4787,-1.4777,-1.484,-1.4841,-1.4842,-1.4836,-1.4837,-1.4838,0,0,0,0,0,-1.46,-1.4616,-1.4619,-1.4626,-1.4663,-1.4688,-1.4693,-1.4707,-1.4704,-1.4713,-1.4728,-1.4733,-1.4782,-1.4775,-1.4781,-1.4791,-1.484,-1.4841,-1.4842,-1.4836,-1.4837,-1.4838,0,0,0,0,0,0,-1.459,-1.4619,-1.4623,-1.4647,-1.4665,-1.469,-1.4701,-1.4707,-1.4726,-1.4726,-1.4742,-1.4748,-1.4771,-1.4784,-1.4775,-1.4814,-1.4811,-1.4814,-1.4804,-1.4806,-1.4807,-1.4803,-1.4779,0,0,0,0,0,-1.4591,-1.4609,-1.4633,-1.4652,-1.4661,-1.4679,-1.4691,-1.47,-1.4719,-1.4727,-1.4743,-1.4762,-1.4782,-1.4795,-1.4814,-1.4839,-1.4845,-1.4849,-1.4849,-1.485,-1.4852,-1.4866,-1.4868,-1.4846,-1.4846,-1.4846,0,0,-1.4592,-1.461,-1.462,-1.465,-1.4665,-1.4684,-1.4686,-1.4705,-1.4719,-1.473,-1.4754,-1.4767,-1.4789,-1.4814,-1.4825,-1.4825,-1.4859,-1.4852,-1.4852,-1.4853,-1.4868,-1.487,-1.4872,-1.4847,-1.4847,-1.4847,0,0,-1.4604,-1.4619,-1.4637,-1.4652,-1.4675,-1.4688,-1.4692,-1.4716,-1.4725,-1.475,-1.4759,-1.4776,-1.4809,-1.4825,-1.4837,-1.4857,-1.4862,-1.4863,-1.4867,-1.4881,-1.4883,-1.4884,-1.4891,-1.4894,-1.4865,-1.4865,-1.4865,0,-1.4603,-1.463,-1.4645,-1.4664,-1.4677,-1.4688,-1.4706,-1.4721,-1.4749,-1.4758,-1.4757,-1.48,-1.4815,-1.4844,-1.4849,-1.4859,-1.4864,-1.4859,-1.4881,-1.4883,-1.4885,-1.4892,-1.4894,-1.4865,-1.4865,-1.4865,-1.4865,0,-1.4628,-1.4647,-1.4659,-1.4686,-1.47,-1.4718,-1.4736,-1.4749,-1.4758,-1.4771,-1.4796,-1.4815,-1.4839,-1.4847,-1.4855,-1.4877,-1.4876,-1.4878,-1.4876,-1.4887,-1.4893,-1.4896,-1.4864,-1.4864,-1.4864,-1.4865,0,0,-1.4633,-1.4669,-1.4673,-1.4685,-1.4712,-1.4728,-1.4747,-1.4771,-1.4782,-1.4801,-1.4818,-1.4847,-1.4849,-1.4863,-1.4873,-1.4886,-1.49,-1.4886,-1.4887,-1.4888,-1.4926,-1.4924,-1.4927,-1.4904,-1.4905,-1.4905,-1.4924,0,-1.4648,-1.4683,-1.4697,-1.4725,-1.4743,-1.4755,-1.4772,-1.4791,-1.4804,-1.4822,-1.4837,-1.4857,-1.4858,-1.4867,-1.488,-1.4896,-1.4908,-1.4895,-1.4921,-1.4921,-1.4914,-1.493,-1.4928,-1.4945,-1.4927,-1.4928,-1.4928,0,-1.467,-1.4689,-1.4719,-1.4745,-1.4753,-1.4768,-1.4791,-1.4808,-1.483,-1.4838,-1.4855,-1.4864,-1.4886,-1.4883,-1.4913,-1.4904,-1.4916,-1.4925,-1.4926,-1.4929,-1.4925,-1.4933,-1.4951,-1.4953,-1.4932,-1.4932,-1.4932,0,-1.467,-1.4705,-1.4727,-1.4738,-1.4768,-1.4778,-1.4791,-1.4813,-1.4826,-1.4847,-1.4856,-1.4879,-1.4891,-1.4909,-1.4925,-1.4921,-1.4954,-1.4952,-1.4962,-1.4961,-1.4967,-1.4967,-1.4987,-1.4976,-1.4976,-1.4976,-1.4976,0,-1.4685,-1.4703,-1.4728,-1.4742,-1.4762,-1.4779,-1.4799,-1.4813,-1.4833,-1.485,-1.4862,-1.4878,-1.4898,-1.4917,-1.493,-1.4953,-1.4959,-1.4967,-1.497,-1.4965,-1.4964,-1.4973,-1.4972,-1.4977,-1.4976,-1.4976,-1.4976,0,-1.4689,-1.4706,-1.4732,-1.4758,-1.4766,-1.478,-1.4803,-1.4817,-1.4831,-1.4853,-1.4859,-1.4881,-1.4904,-1.4922,-1.4952,-1.4961,-1.4986,-1.4989,-1.4978,-1.4979,-1.4988,-1.4987,-1.5014,-1.5018,-1.5005,-1.5005,-1.5005,0,-1.4697,-1.4711,-1.4739,-1.4752,-1.4765,-1.4784,-1.4798,-1.4816,-1.483,-1.4857,-1.4868,-1.4892,-1.4911,-1.4948,-1.4967,-1.499,-1.4994,-1.5002,-1.4998,-1.4993,-1.4994,-1.4993,-1.4994,-1.5002,-1.5002,-1.5002,-1.5002,0,-1.4709,-1.4717,-1.4736,-1.4759,-1.4776,-1.4795,-1.4814,-1.4824,-1.4845,-1.486,-1.4884,-1.4899,-1.493,-1.4954,-1.4979,-1.4993,-1.5002,-1.5004,-1.5007,-1.5002,-1.4995,-1.4999,-1.4979,-1.5003,-1.5003,-1.5003,-1.5003,-1.5003,-1.4715,-1.4728,-1.475,-1.4772,-1.4788,-1.4806,-1.4821,-1.4838,-1.4857,-1.4884,-1.4893,-1.4917,-1.494,-1.4975,-1.499,-1.5009,-1.501,-1.5015,-1.5016,-1.5017,-1.5016,-1.4993,-1.5014,-1.5014,-1.5014,-1.5014,-1.5014,0,-1.4727,-1.4742,-1.4762,-1.4789,-1.4806,-1.4813,-1.4835,-1.4849,-1.487,-1.489,-1.491,-1.4937,-1.4961,-1.4982,-1.5007,-1.5018,-1.5023,-1.5024,-1.5023,-1.5027,-1.5015,-1.5009,-1.502,-1.502,-1.502,-1.502,-1.502,-1.502,-1.4736,-1.4758,-1.477,-1.4801,-1.4817,-1.484,-1.4852,-1.4869,-1.4886,-1.4916,-1.4935,-1.4949,-1.497,-1.4997,-1.5019,-1.5025,-1.5033,-1.5033,-1.504,-1.5028,-1.5027,-1.5026,-1.5021,-1.5035,-1.5035,-1.505,-1.505,-1.505]}]]